Theta_e
319 318 318 318 318 320 320 320 318 317 317 317 317 317 317 317 317 316 315 316 318 316 315 315 315 314 314 315 315 315 318 319 316 315 315 314 314 315 316 315 314 313 314 315 315 315 315 315 313 313 316 319 318 320 321 320 330 346 345 331 328 326 317 317 318 317 318 315 315 315 316 316 310 308 308 306 303 302 301 300 299 299 299 299 299 298 297 297
319 319 319 319 319 320 321 321 320 318 318 318 318 318 318 318 318 317 315 315 317 317 315 315 315 314 315 316 316 317 320 320 316 315 315 314 314 315 314 313 314 314 315 315 315 315 316 317 312 312 320 321 318 321 323 322 326 337 337 326 329 331 317 315 317 314 316 315 315 314 313 314 312 309 309 310 306 303 303 301 299 299 298 298 297 297 296 296
320 320 319 319 319 320 322 322 321 320 319 319 319 319 319 318 318 318 316 314 316 317 315 315 315 314 316 317 318 318 318 320 320 317 315 314 314 313 312 313 314 315 315 314 315 314 315 316 311 313 321 321 320 323 323 323 323 327 328 324 333 335 317 313 317 315 316 316 315 314 312 313 311 309 309 309 306 304 304 302 302 301 299 298 297 296 296 295
320 320 319 319 319 320 322 323 323 322 321 321 321 321 320 320 320 319 318 314 314 317 316 315 315 314 316 317 319 317 316 323 322 316 314 314 313 312 311 313 314 315 314 313 314 314 314 313 311 315 320 322 326 324 320 321 321 321 321 321 328 326 316 314 315 315 316 315 317 315 313 312 309 309 307 306 308 307 304 303 304 302 299 298 298 295 295 295
319 319 318 318 319 319 321 323 324 323 322 323 322 322 321 320 321 320 319 316 313 316 317 315 315 316 315 317 318 315 318 327 321 314 315 314 311 311 311 312 314 315 313 313 313 313 314 312 315 322 321 320 326 324 319 319 317 316 319 322 324 318 313 314 314 316 315 315 317 315 313 312 310 309 304 307 314 310 304 303 302 299 298 297 297 295 294 294
316 317 317 317 318 319 320 322 323 324 323 323 322 322 321 321 321 321 320 317 313 315 317 315 316 316 314 316 315 314 323 326 318 314 314 313 311 311 311 311 314 314 313 313 312 313 316 316 318 322 320 319 319 318 318 318 316 316 319 320 320 316 313 314 314 316 316 317 316 312 312 312 311 309 303 305 310 306 302 300 299 297 296 296 295 294 295 294
314 315 316 317 318 318 319 320 322 323 323 323 322 321 320 320 321 321 320 318 314 314 317 315 316 317 316 315 315 321 330 324 314 314 313 312 312 311 311 310 311 313 313 313 312 314 319 321 320 317 319 321 316 315 317 317 316 316 320 321 317 314 313 314 314 316 318 317 313 310 312 314 314 310 304 303 302 300 299 297 296 296 295 295 294 294 294 294
314 314 316 317 318 318 318 319 321 321 321 321 321 319 319 319 320 320 319 319 315 314 317 315 316 319 317 318 323 328 329 320 313 314 313 312 312 311 311 310 310 311 313 314 312 315 319 320 318 315 318 318 314 316 315 314 317 316 320 320 317 316 315 314 313 317 318 314 313 314 314 313 311 308 304 301 298 297 297 295 295 294 294 294 295 295 293 293
313 314 315 317 318 318 318 319 320 320 320 319 319 318 317 318 319 319 318 319 317 313 316 315 315 319 316 318 327 331 323 315 314 313 312 312 312 312 312 310 310 311 314 315 312 312 317 318 316 315 316 315 312 315 315 313 316 316 318 319 315 316 316 314 314 316 316 312 313 317 316 311 306 307 305 300 297 297 295 295 294 294 294 294 295 294 293 292
313 314 315 317 318 318 319 319 320 320 319 319 318 318 317 318 318 318 317 318 317 314 317 316 314 317 316 316 323 327 319 313 312 312 313 313 312 313 312 311 310 310 312 314 312 311 315 316 315 314 316 315 312 313 313 313 314 314 316 316 314 314 313 314 314 314 314 311 313 316 316 309 304 308 309 301 297 296 295 295 295 295 295 294 295 294 293 292
312 313 315 317 318 319 319 320 321 321 320 319 318 317 317 317 318 317 317 318 316 316 317 316 315 316 316 319 326 324 315 312 311 311 311 312 312 312 312 311 310 310 311 313 312 310 311 312 311 313 315 314 313 313 312 312 313 313 313 313 315 315 314 314 312 312 313 310 314 317 313 307 305 310 310 302 297 296 295 295 295 295 296 295 295 295 293 292
311 313 315 316 318 319 319 320 321 321 321 319 318 318 317 317 317 317 317 317 316 317 317 315 315 316 316 321 326 320 313 311 311 310 310 311 311 312 312 313 311 310 311 312 312 310 309 310 310 313 314 312 313 313 311 311 312 312 312 312 316 318 317 314 311 311 312 311 312 314 311 308 308 310 305 299 297 295 295 296 295 295 296 295 295 296 294 292
311 313 314 315 317 319 320 320 321 322 321 320 319 317 317 317 317 317 317 316 316 316 317 315 314 316 319 321 318 313 312 312 310 310 309 309 310 313 314 312 311 311 310 311 312 310 309 309 310 313 313 313 315 311 310 311 311 312 311 312 318 320 320 315 311 311 310 311 311 311 314 313 311 308 301 297 296 295 296 296 295 296 295 295 295 296 295 292
311 313 314 314 316 318 320 321 322 323 321 320 319 317 317 317 316 317 317 315 315 316 315 315 315 317 320 320 314 312 314 312 311 311 309 309 310 314 314 311 311 312 311 311 311 309 310 310 310 312 311 311 312 309 312 314 314 312 309 317 322 317 324 321 312 312 310 311 311 310 314 314 312 308 300 297 296 295 296 295 294 295 295 295 296 296 296 294
312 313 314 314 315 317 319 321 322 322 321 320 318 317 316 316 317 317 316 314 313 316 316 317 316 318 321 318 313 313 314 313 313 312 310 310 309 312 312 309 311 312 311 311 311 310 310 310 311 314 313 310 312 313 319 323 323 318 311 324 328 315 324 324 310 312 311 310 310 310 315 314 313 308 300 297 296 296 297 295 294 295 295 295 295 295 296 295
312 314 314 314 314 316 319 321 323 323 321 319 317 316 315 316 317 317 317 314 314 316 317 319 316 317 322 318 313 313 313 315 315 312 311 311 309 310 309 309 312 313 313 311 311 311 310 313 314 313 313 311 316 323 325 328 333 329 316 320 328 317 316 315 309 312 312 310 310 310 314 315 313 306 299 297 296 296 296 295 295 295 295 294 294 294 296 295
311 314 314 314 314 315 318 320 323 323 320 318 317 314 315 316 316 317 316 313 316 316 316 319 316 316 319 315 314 316 315 315 315 313 312 311 309 309 309 310 311 311 312 311 311 313 311 313 311 310 316 312 315 326 324 326 330 329 323 318 321 317 310 310 310 311 310 311 312 310 311 312 310 305 299 298 296 295 296 295 294 294 294 294 294 295 296 295
311 313 314 313 314 315 317 320 323 323 320 318 316 315 315 316 316 317 316 315 317 316 316 319 316 314 315 314 316 317 316 314 315 313 311 311 309 309 310 310 309 309 313 314 312 314 313 317 318 320 327 316 313 325 322 323 323 318 319 316 315 313 309 309 310 309 310 311 311 311 311 311 310 305 300 297 295 295 296 294 294 294 294 294 294 295 296 296
310 312 313 313 313 315 317 320 322 323 319 316 316 315 314 315 319 319 314 313 316 315 316 318 316 314 314 315 317 315 314 313 313 312 311 311 308 309 311 310 313 314 318 323 320 317 317 323 326 324 330 320 313 321 317 319 322 312 313 314 312 312 309 307 307 309 310 310 311 310 310 310 311 309 302 297 295 295 295 294 293 294 294 294 295 295 296 296
311 312 313 313 313 315 317 319 322 322 318 315 316 315 316 321 326 325 319 318 317 314 316 318 317 318 317 317 317 314 314 313 312 312 311 310 308 311 312 312 323 328 324 324 321 320 319 322 325 320 324 322 312 315 312 312 315 310 311 313 310 311 308 306 307 309 309 309 312 311 310 310 310 309 303 297 296 295 294 294 293 293 293 294 295 294 295 295
311 311 313 314 313 315 317 319 321 321 316 314 315 313 315 317 317 318 320 322 315 308 315 318 314 317 315 315 316 312 313 314 312 312 311 309 310 312 311 313 325 332 326 319 317 322 321 318 324 324 323 318 310 311 310 309 310 308 309 311 310 310 308 306 307 308 306 308 313 312 310 309 308 307 303 298 296 295 295 294 294 293 293 294 294 294 294 293
311 310 312 314 314 315 317 318 320 320 315 314 312 311 311 311 311 311 312 319 317 309 313 315 313 316 314 312 314 311 312 315 313 313 311 309 311 312 313 317 320 325 323 318 321 328 327 322 323 322 316 311 308 309 309 308 308 308 309 310 311 310 310 310 309 308 308 307 312 313 309 308 308 306 303 299 297 296 295 295 294 293 293 294 293 293 292 292
312 310 310 314 315 315 317 317 318 318 315 312 309 308 308 309 311 310 310 318 321 317 317 318 317 319 317 313 313 311 312 314 315 316 311 308 312 313 315 321 321 320 317 317 322 323 325 329 322 314 310 308 309 309 308 308 308 310 309 309 312 311 311 312 311 311 310 307 310 310 307 306 306 306 304 299 297 297 296 296 295 294 294 294 293 292 291 292
312 309 310 314 315 315 316 316 317 315 314 313 308 305 307 308 310 310 314 321 321 319 319 318 317 320 320 313 311 313 314 314 314 313 310 309 312 311 315 321 320 319 317 319 324 320 321 322 314 311 310 308 310 310 310 309 311 319 316 310 311 311 310 311 310 310 309 310 311 307 306 308 306 306 305 299 296 297 296 295 295 294 294 294 293 292 292 293
311 310 310 313 316 315 314 314 314 313 315 316 309 304 306 310 310 310 316 322 321 321 318 314 316 320 317 311 311 313 314 313 314 310 307 309 312 311 312 314 316 321 318 315 316 316 316 312 309 312 312 311 311 313 316 314 313 323 321 313 312 311 311 311 311 310 309 313 312 305 308 314 309 307 306 300 296 296 295 294 294 294 293 294 293 292 293 294
312 312 310 313 317 314 313 317 313 311 317 317 311 304 305 310 310 310 318 322 320 320 319 316 317 318 313 312 313 313 315 315 311 307 306 307 309 311 314 314 314 318 317 313 313 315 313 309 312 316 316 316 314 315 320 316 313 317 316 315 314 310 310 310 309 309 311 313 308 304 308 310 308 309 309 303 298 297 295 294 294 293 293 293 292 291 293 293
313 313 311 312 316 313 312 320 314 312 319 318 311 304 304 309 309 310 316 318 320 323 323 318 316 316 314 313 311 313 319 316 309 306 306 308 307 308 316 318 315 312 311 314 320 320 312 309 314 316 316 317 314 316 318 314 316 318 313 313 313 309 309 309 306 308 310 309 305 304 306 305 305 307 306 302 300 298 295 294 293 293 293 292 291 291 292 292
313 313 311 312 316 311 307 314 312 311 317 314 308 304 307 309 309 315 314 310 318 323 323 319 313 313 314 311 310 313 315 313 313 309 305 306 307 308 314 319 322 318 311 315 324 322 311 310 316 315 315 315 316 321 319 313 316 318 312 308 306 305 306 306 305 307 307 304 305 306 305 306 308 307 302 298 300 300 296 295 294 293 292 291 291 291 291 291
312 313 311 312 317 312 307 309 308 311 314 308 305 306 308 307 311 323 316 309 320 322 318 317 312 312 315 312 312 315 313 312 315 310 305 305 305 308 311 314 320 318 311 313 322 321 312 310 317 319 316 317 321 322 318 314 312 311 309 307 307 308 306 305 304 306 307 305 307 307 305 307 312 312 304 299 300 301 299 296 295 293 292 291 290 291 291 290
313 314 312 312 317 315 310 308 307 310 311 305 304 307 309 313 322 326 315 312 322 322 315 314 313 314 315 314 315 315 314 313 312 308 307 307 306 308 307 308 312 315 316 314 315 319 312 306 311 315 314 317 319 313 309 311 309 308 311 311 314 313 309 309 308 306 308 310 311 309 307 307 311 312 306 304 305 304 301 299 296 294 293 290 290 290 289 289
313 314 312 313 317 315 311 310 311 309 304 302 305 309 312 322 330 326 318 315 314 316 316 314 315 315 315 318 320 315 313 315 312 309 310 309 308 310 308 310 315 320 328 324 316 318 313 307 310 312 311 312 313 308 308 311 311 312 315 314 314 315 315 315 314 310 311 317 315 307 304 305 308 310 306 304 304 302 302 301 297 295 293 290 289 289 289 289
313 313 313 314 317 316 311 311 313 309 303 303 307 313 316 317 320 323 325 320 311 315 320 319 317 316 316 319 322 319 315 317 313 311 317 315 312 316 316 320 324 323 329 328 322 321 318 314 312 309 308 309 312 310 308 312 314 314 314 314 315 318 321 319 317 315 315 319 313 302 302 304 305 308 306 304 302 300 301 300 297 296 292 290 289 288 289 289
313 312 313 314 316 317 313 311 312 308 303 304 308 319 323 314 315 320 322 320 313 315 321 322 321 320 319 319 324 324 318 319 316 311 317 316 313 322 322 321 323 319 320 321 320 321 323 321 312 308 310 310 312 312 312 316 313 309 311 316 318 319 321 320 319 320 320 320 309 298 300 305 305 306 303 302 300 297 299 298 296 295 292 290 288 288 289 289
314 313 313 314 315 317 316 315 314 307 302 307 312 321 322 316 318 320 319 320 317 317 321 322 321 319 320 321 327 326 318 320 320 313 317 316 314 323 322 315 317 321 320 317 319 320 322 325 318 313 313 310 308 312 320 322 312 308 311 314 317 318 320 320 320 321 319 318 310 300 302 309 310 305 298 294 293 293 295 295 293 292 290 289 288 288 289 288
314 314 313 314 314 316 317 318 317 309 304 309 313 317 318 315 318 319 321 324 321 319 319 320 321 319 320 324 326 325 318 318 318 315 318 318 319 327 328 321 318 321 322 319 320 317 316 324 320 308 306 307 308 310 314 319 313 308 308 309 312 315 317 317 315 315 313 310 307 303 306 309 307 300 293 291 291 290 291 290 290 290 289 288 288 287 288 288
313 313 312 312 312 315 317 318 317 310 306 309 310 315 315 314 318 320 320 323 323 322 319 319 322 320 322 326 325 322 316 315 317 316 318 318 319 323 326 326 319 316 318 319 321 317 314 321 314 303 303 305 305 306 306 312 314 308 305 308 310 310 310 310 310 309 308 308 309 307 308 308 307 301 294 291 291 289 289 289 289 289 288 288 287 287 288 288
313 312 311 311 311 313 316 317 316 309 307 308 309 314 314 312 320 323 321 320 320 324 322 320 322 321 323 325 323 323 318 315 316 317 320 319 316 317 320 322 318 313 314 317 320 318 316 318 311 307 309 303 297 301 302 304 308 308 309 310 308 306 305 306 309 309 308 309 311 309 308 309 311 307 296 291 292 290 289 289 289 288 288 288 287 287 288 288
312 311 311 312 311 312 314 316 313 308 307 308 309 315 316 312 316 319 322 319 316 320 322 320 319 319 323 323 323 324 319 317 317 317 322 319 315 318 318 317 316 312 313 313 314 316 314 316 312 305 307 302 297 302 306 302 301 306 308 306 308 310 309 307 308 310 311 312 314 312 309 309 309 308 302 297 294 291 289 288 289 289 287 287 287 287 287 288
312 311 311 311 310 311 314 314 311 308 309 311 313 317 317 312 312 315 321 320 316 318 320 320 316 314 319 321 323 323 317 317 318 316 318 316 314 317 315 315 317 311 310 311 313 316 312 314 315 303 300 303 301 304 312 307 300 299 301 301 304 307 309 309 307 309 313 314 315 315 314 313 309 306 308 303 296 292 290 288 289 289 287 287 287 287 287 287
312 312 312 312 310 312 313 312 310 308 310 314 315 317 315 314 313 313 317 318 315 316 318 321 318 314 317 318 320 321 316 317 317 315 316 315 315 316 311 314 317 311 308 310 312 314 311 313 317 305 299 303 305 305 310 310 304 300 300 301 301 302 305 307 304 305 310 312 314 314 315 316 309 303 306 304 297 293 291 290 290 289 287 287 287 286 287 287
312 312 312 312 312 312 311 310 311 310 311 313 314 315 314 315 315 314 315 315 315 315 315 319 320 317 316 316 316 317 316 317 316 314 316 315 314 314 312 314 316 312 310 311 312 313 312 314 315 308 303 306 309 308 306 307 307 304 303 304 303 303 306 307 306 306 306 308 312 313 313 315 307 301 303 302 298 294 291 291 291 288 287 287 286 287 287 286
312 312 312 311 312 311 311 312 313 314 313 314 314 315 315 315 316 316 315 314 314 314 313 315 318 317 316 315 316 317 318 320 317 314 316 316 313 313 315 315 314 312 312 314 313 312 314 315 312 310 309 305 304 303 301 302 303 302 304 306 304 303 305 309 312 309 305 305 306 307 309 310 302 298 300 299 297 294 291 291 290 288 287 287 286 287 286 286
313 312 309 310 310 310 312 313 314 314 314 314 314 315 316 316 316 317 316 314 313 313 312 314 315 315 314 314 315 316 317 319 318 316 317 318 315 314 316 313 310 312 314 313 310 308 311 314 311 313 314 306 300 300 301 300 299 300 302 303 303 303 305 307 309 309 309 307 304 305 309 308 300 297 297 295 294 293 291 290 290 288 287 286 286 286 286 286
314 311 308 308 309 310 312 313 312 313 314 314 314 315 315 315 316 316 316 315 315 315 313 313 313 313 315 314 313 315 316 315 316 315 316 319 316 311 311 311 309 311 314 314 313 311 312 315 313 314 317 313 307 305 305 302 298 298 301 301 301 302 304 305 304 305 308 307 305 306 311 310 301 296 294 293 292 292 290 289 289 288 287 286 286 285 285 286
314 313 310 308 308 310 312 312 311 312 313 313 315 315 315 316 315 315 316 315 315 316 315 315 315 313 314 315 313 313 315 313 314 315 314 317 315 306 304 306 306 308 314 316 314 312 313 316 314 314 315 316 313 311 313 311 301 298 300 300 300 301 302 303 303 304 306 306 306 307 309 309 302 296 294 292 291 291 289 288 288 288 287 286 285 285 285 286
315 315 313 309 308 309 311 312 312 313 313 313 314 314 314 315 314 315 316 315 314 315 315 317 317 314 314 315 313 313 314 312 314 316 315 318 317 306 301 302 305 309 313 313 311 313 317 315 312 313 314 314 313 311 314 313 305 302 302 299 299 300 301 301 303 305 306 306 307 307 307 308 305 300 297 294 291 291 290 288 288 287 287 286 285 285 285 286
314 315 313 311 310 311 311 311 312 313 313 313 313 314 314 314 313 314 316 315 315 314 314 315 315 313 314 314 313 313 314 312 313 314 316 320 317 304 298 300 304 307 310 308 308 314 319 315 310 311 311 311 312 311 312 312 307 307 307 303 299 299 300 302 303 304 305 306 307 308 307 308 307 305 301 296 292 291 289 288 288 287 286 286 285 286 286 286
315 315 313 312 312 312 311 312 312 313 313 312 312 313 314 314 313 313 314 315 315 315 314 315 315 314 314 314 314 314 313 314 314 312 314 318 315 306 300 300 301 304 306 305 305 309 314 314 312 311 310 310 310 310 311 311 308 308 309 307 303 298 299 302 302 303 304 306 308 309 308 308 308 306 303 298 295 292 290 288 288 287 286 286 285 286 286 285
316 316 314 311 312 312 311 312 312 312 312 312 312 312 312 313 313 313 313 315 316 315 314 315 314 314 314 314 314 314 313 314 315 313 313 314 314 310 308 307 304 301 302 304 305 306 310 312 311 310 310 310 308 308 309 308 307 307 307 307 306 302 300 301 301 302 303 304 305 306 306 307 306 305 303 300 298 294 290 288 288 287 286 286 285 285 286 285
316 317 315 312 312 311 310 311 312 312 311 311 312 312 310 310 311 312 313 315 316 315 314 314 314 314 314 314 313 313 313 313 314 315 315 314 314 312 312 314 311 301 299 302 304 305 307 310 312 310 310 310 309 309 309 307 307 308 306 306 307 306 304 303 303 303 303 303 303 303 303 304 303 302 302 300 298 294 290 288 288 287 286 286 285 285 285 285
315 314 314 314 313 312 311 311 311 312 312 311 312 312 311 310 310 310 312 313 314 314 314 314 315 314 314 314 313 313 313 313 313 314 313 314 315 313 311 313 313 307 301 300 304 306 306 309 312 310 310 311 310 308 306 304 304 304 305 305 305 305 306 306 305 305 304 304 304 303 302 302 301 300 300 299 296 294 291 289 287 287 286 286 286 285 285 285
314 313 313 314 314 313 312 311 311 312 312 311 311 311 311 311 310 310 312 312 313 313 314 314 314 314 314 314 313 313 313 313 315 316 315 316 317 316 313 311 311 310 304 300 303 306 306 308 310 310 311 311 306 303 303 303 305 307 307 307 305 304 305 305 305 304 304 303 303 303 303 302 301 301 300 297 295 293 291 289 287 287 286 285 286 285 285 286
Wind_Speed
18 18 19 20 21 21 22 22 22 22 23 23 23 24 24 26 27 27 25 24 24 19 12 7 5 8 9 9 9 9 9 11 13 19 15 10 14 12 10 10 10 11 10 10 13 10 7 9 11 16 11 3 3 1 3 2 2 5 3 4 2 1 2 3 5 5 4 3 3 4 1 7 7 3 5 6 11 9 9 9 7 9 8 7 10 10 9 14
17 18 18 19 20 21 21 21 21 22 22 22 23 23 23 24 26 27 24 22 22 19 13 8 4 9 10 9 7 4 6 8 11 16 14 13 13 10 8 9 9 10 11 12 13 11 6 6 9 10 7 2 3 2 2 2 3 4 3 4 1 4 1 2 5 5 4 5 4 4 1 4 4 5 4 4 3 4 9 6 4 8 7 6 8 9 13 20
16 17 18 18 19 20 21 21 21 20 21 21 22 22 22 23 24 26 25 22 21 19 14 10 4 8 10 9 6 3 5 6 6 8 12 13 10 8 8 8 9 10 12 11 10 9 5 6 7 5 5 3 3 3 3 3 3 2 4 3 4 6 1 3 3 5 5 7 6 3 1 3 2 2 4 7 5 2 6 5 2 5 4 4 4 9 16 20
15 16 17 18 18 19 20 21 20 20 20 21 21 21 22 22 23 25 26 22 19 19 14 9 5 6 11 9 6 2 5 5 3 6 10 9 7 8 8 8 9 9 11 11 9 8 7 4 3 2 4 3 4 3 2 3 2 2 3 2 6 4 2 2 4 5 4 5 7 4 2 4 2 3 5 11 8 1 5 7 6 9 9 7 4 8 14 16
15 15 16 17 17 18 19 20 20 20 20 20 20 21 21 22 22 24 26 23 18 18 14 8 6 3 10 11 7 1 5 4 2 5 7 5 7 8 8 9 9 8 11 12 10 9 10 8 5 5 4 2 5 4 1 2 1 1 2 5 5 3 2 3 5 4 3 4 5 4 3 2 2 4 3 8 6 4 6 5 8 10 10 9 7 8 11 12
14 15 15 16 17 17 18 18 19 19 19 19 19 20 21 21 22 23 25 23 18 16 14 7 5 3 7 11 8 1 3 2 4 3 3 3 6 7 8 10 9 8 8 10 13 12 10 8 7 5 4 3 3 2 1 4 1 0 5 3 3 3 2 3 4 3 4 6 4 3 2 3 5 4 1 3 4 5 4 6 8 9 11 12 11 10 9 9
14 14 15 15 16 16 17 18 18 18 19 19 19 20 21 21 22 22 23 23 17 15 13 6 3 5 8 9 7 2 4 3 3 1 1 2 5 7 7 8 9 8 7 10 14 9 6 8 6 3 3 3 2 1 2 5 3 2 3 4 2 3 3 4 5 4 5 8 3 3 4 3 6 4 2 4 3 4 6 7 9 11 13 13 11 8 8 8
13 14 14 14 15 16 17 17 17 18 18 18 19 19 21 22 23 22 22 21 16 14 11 5 1 6 9 7 6 4 3 2 2 1 0 2 4 6 6 6 9 8 6 12 11 4 4 6 3 2 3 1 1 3 3 5 4 2 4 4 2 2 2 3 5 5 6 7 3 5 3 2 5 5 5 5 4 6 7 7 9 11 10 10 9 8 8 8
13 13 14 14 15 16 16 17 17 17 17 18 19 19 21 22 23 23 22 20 15 13 10 5 2 7 6 3 5 2 2 3 2 1 1 1 3 5 6 6 9 8 7 10 9 6 4 2 0 1 1 1 2 3 4 4 3 2 3 3 3 5 5 2 2 4 5 4 3 6 4 2 2 3 3 5 6 6 7 7 7 8 8 7 7 7 8 8
12 13 14 14 15 16 16 17 17 17 17 18 18 19 20 22 23 23 21 17 13 12 8 3 2 5 7 2 5 2 3 2 2 1 1 1 2 3 5 6 8 8 7 7 9 9 5 4 2 3 3 1 1 2 1 2 2 3 2 3 4 5 6 3 2 2 3 1 3 5 1 1 2 2 0 6 6 6 6 7 5 7 8 7 6 6 8 8
12 13 14 14 15 16 16 17 17 17 18 18 18 19 19 21 23 23 20 15 11 11 7 0 2 3 6 4 4 3 3 2 2 3 3 1 2 2 3 5 7 8 6 6 6 7 5 6 5 3 2 1 1 3 1 1 2 2 3 5 7 6 6 2 2 2 3 1 3 8 3 0 0 3 4 7 7 6 7 7 5 7 7 6 6 5 6 7
12 13 13 15 15 16 17 17 18 18 18 18 18 19 19 21 23 23 18 12 10 10 5 0 2 4 4 4 3 3 4 3 3 5 4 3 3 2 3 4 7 8 5 4 3 3 4 4 5 3 0 1 0 2 1 2 1 1 3 4 8 8 7 3 1 3 4 3 4 8 4 1 4 5 2 6 8 6 6 7 5 6 6 5 6 4 5 6
11 12 13 14 15 16 17 17 18 18 19 19 19 19 19 20 22 21 14 9 9 8 3 1 3 5 3 2 2 4 4 3 4 6 5 3 2 2 3 4 6 7 6 4 3 3 3 2 5 4 1 3 1 1 2 1 2 1 3 2 4 7 6 4 2 1 3 3 4 6 1 5 9 7 3 7 8 7 6 6 5 6 5 5 5 4 4 4
10 10 12 13 14 16 16 17 18 19 19 19 20 20 19 21 22 17 10 7 9 6 2 2 5 4 3 1 2 3 3 2 2 4 4 3 3 2 3 5 5 5 5 5 3 3 3 2 5 5 1 2 1 2 3 5 3 0 1 2 3 3 5 6 1 2 2 1 3 5 4 6 8 7 5 7 7 8 8 6 6 6 5 5 5 5 4 5
9 10 11 12 13 15 16 17 18 19 20 19 20 20 20 22 20 13 5 6 11 5 1 3 4 4 4 0 3 4 3 3 2 1 2 4 3 1 3 4 2 3 4 3 3 3 2 1 4 4 1 2 3 3 4 4 3 3 1 3 4 1 5 9 2 5 5 3 2 5 4 6 7 6 7 7 6 8 8 7 7 6 6 6 5 5 4 5
10 10 10 11 13 14 15 17 18 20 19 19 21 20 21 22 17 11 5 6 14 5 4 3 3 4 3 1 2 5 4 5 4 2 1 4 4 2 4 3 2 3 2 2 2 1 1 2 3 3 0 3 5 4 4 4 4 4 2 3 4 3 4 7 4 3 5 3 1 3 5 5 5 5 7 7 7 7 8 8 8 7 7 6 5 5 5 5
11 11 11 11 12 14 15 16 17 19 19 20 21 21 22 18 14 10 6 6 11 1 4 1 2 3 1 1 3 3 4 6 5 3 2 3 4 3 3 3 3 3 2 1 1 1 2 3 1 0 3 4 3 4 4 4 4 4 3 2 5 4 3 4 6 4 2 3 4 3 5 7 5 4 8 8 8 8 8 10 9 8 6 6 6 5 5 5
13 12 11 12 12 13 14 15 17 19 20 19 20 22 20 12 11 6 5 5 6 4 2 1 1 2 2 2 3 3 3 4 4 4 4 2 3 4 2 3 2 2 3 3 2 3 3 3 2 2 4 4 3 5 2 4 3 3 4 3 4 4 4 5 5 4 1 2 6 4 6 11 8 4 8 8 9 9 9 9 8 8 7 6 6 6 6 5
13 12 12 12 12 13 14 15 16 18 20 19 19 20 14 8 7 2 1 8 3 2 1 3 2 0 3 3 2 1 1 3 4 5 5 1 2 2 3 4 3 3 4 3 3 4 3 3 4 2 3 3 1 4 6 7 7 6 5 4 4 5 7 7 6 5 2 3 8 8 9 11 8 6 8 8 9 9 8 7 7 7 7 7 6 6 6 5
14 12 12 12 12 13 13 14 15 17 18 18 19 15 7 5 5 3 6 8 2 2 1 5 4 2 3 1 2 1 2 3 3 5 4 1 1 2 3 3 6 5 3 1 4 3 4 4 3 4 5 6 6 6 6 5 6 5 3 4 5 5 7 8 5 6 2 3 8 9 9 10 9 8 10 9 8 8 8 9 9 8 8 7 7 7 7 6
14 13 11 12 12 12 12 13 13 15 15 15 16 8 2 2 2 3 6 7 7 4 3 5 2 3 4 2 2 1 1 1 2 4 4 1 2 4 1 3 6 4 2 0 2 3 5 2 5 8 8 8 6 5 4 3 4 3 3 3 5 5 8 9 5 4 0 2 7 5 5 10 10 9 8 9 10 12 14 14 13 12 10 8 8 8 7 6
16 14 12 11 12 12 12 12 12 13 12 11 10 7 5 3 3 2 1 4 9 4 4 5 1 3 5 3 4 1 2 0 3 5 5 1 1 4 1 4 4 1 3 3 3 5 5 4 9 8 6 5 2 2 4 2 2 2 2 1 5 4 4 8 5 3 2 1 5 6 5 8 10 11 9 12 14 14 15 15 13 14 12 9 8 8 8 6
17 16 13 11 12 12 11 11 11 12 10 7 7 7 5 3 6 5 2 2 7 4 1 3 2 2 2 3 5 4 3 2 3 4 3 2 1 3 4 5 3 2 1 2 2 1 3 6 8 3 6 6 1 2 4 1 1 3 3 2 5 4 2 5 5 5 4 3 6 8 8 7 9 12 9 10 11 8 9 10 9 10 11 10 10 8 8 8
18 17 14 12 12 12 11 11 10 8 6 5 6 5 4 4 5 4 1 1 5 5 3 3 2 3 2 2 4 6 3 2 3 3 2 4 3 2 3 5 4 2 2 4 6 4 6 6 3 5 6 5 2 1 5 3 3 4 5 5 6 7 6 7 4 5 6 4 4 7 8 6 7 13 10 2 3 5 6 8 8 9 9 8 8 8 8 8
17 16 14 12 11 11 10 10 7 4 3 2 4 4 4 5 5 3 1 2 4 6 3 3 1 3 4 3 4 5 2 2 3 2 1 4 5 2 1 3 4 3 5 4 5 3 8 5 4 6 3 4 5 3 5 7 3 5 5 9 10 9 8 7 5 5 5 5 4 5 5 6 2 7 9 1 3 8 6 9 12 10 8 7 8 8 8 7
14 15 14 12 10 11 9 5 3 3 3 1 1 3 3 5 6 4 2 5 3 5 1 2 1 3 5 3 2 3 2 3 3 0 1 2 3 2 2 1 1 2 5 4 2 2 3 3 4 6 4 4 4 4 5 7 4 3 4 6 7 6 6 6 4 3 2 4 3 3 2 8 3 5 9 5 8 10 7 10 13 10 9 9 8 7 7 6
13 15 15 11 8 10 7 2 2 2 2 2 1 2 2 5 6 3 2 4 5 4 3 1 1 3 4 2 2 4 3 3 1 1 1 1 1 2 2 2 1 1 3 3 2 3 3 2 4 4 4 4 4 5 6 7 6 3 4 4 4 4 4 4 1 2 4 2 6 2 4 7 7 7 6 6 9 10 9 12 11 10 11 10 8 8 7 7
14 16 16 10 7 8 6 4 4 3 3 2 2 1 2 5 5 2 4 1 5 2 3 1 1 3 2 0 1 3 2 1 3 1 1 2 1 3 1 5 6 5 3 5 3 6 3 4 4 5 3 3 6 6 7 10 4 5 5 4 3 3 4 2 2 5 3 3 8 6 7 4 9 5 2 2 7 10 12 16 14 13 13 10 9 8 7 6
16 17 15 10 7 7 6 5 5 3 4 2 1 2 5 5 3 4 4 3 5 0 1 1 2 2 1 1 1 0 0 0 2 3 2 2 0 3 1 5 6 5 2 3 6 6 2 5 7 7 5 5 6 5 7 9 4 3 4 2 2 1 2 1 1 3 2 1 10 8 7 4 8 3 2 1 5 11 14 14 13 14 12 10 9 8 7 6
15 15 13 9 8 7 6 7 7 5 5 2 2 4 5 3 3 5 0 5 3 1 1 1 1 2 4 3 2 1 2 2 1 1 2 1 1 5 1 2 5 4 1 4 3 5 3 1 3 4 4 5 4 2 2 4 3 3 5 4 4 3 2 2 1 2 3 4 11 8 11 8 7 3 5 5 6 9 11 9 9 13 13 11 10 8 7 6
15 15 12 9 9 8 5 5 4 4 3 3 5 5 3 2 4 4 6 6 2 1 1 1 2 2 5 5 2 2 2 2 1 2 1 1 1 3 1 1 3 3 3 4 3 5 5 1 2 2 3 4 6 4 3 3 3 5 5 4 4 5 4 4 4 3 1 6 7 4 8 9 8 6 5 8 8 6 8 8 13 17 16 12 9 7 7 6
14 14 11 11 13 10 6 4 2 2 2 5 5 4 3 1 0 4 6 5 2 3 3 3 2 3 4 3 2 3 3 2 3 5 4 3 2 3 4 4 2 2 5 2 2 6 3 4 3 3 1 5 6 4 3 5 4 5 4 4 3 5 4 3 4 0 3 7 4 2 2 5 10 10 8 12 12 8 7 9 13 16 15 13 10 7 6 5
13 13 12 14 14 11 10 8 6 5 3 7 3 4 5 3 5 6 5 3 2 3 1 2 2 3 5 3 3 4 2 3 4 4 4 3 2 4 4 5 6 3 4 3 1 3 3 4 2 1 2 3 7 5 2 2 1 4 3 3 1 1 3 5 5 3 5 7 2 3 2 4 8 8 8 11 10 8 7 8 9 11 14 13 10 7 6 5
13 13 14 14 14 12 11 10 8 5 4 4 3 4 4 5 6 5 6 6 3 2 2 2 3 3 4 3 5 4 3 4 4 5 3 3 1 4 4 5 5 5 3 2 1 2 2 5 3 5 2 4 8 6 5 5 3 4 4 4 3 3 3 5 4 5 9 7 3 1 2 4 4 2 4 6 6 5 3 3 4 7 10 9 7 6 6 6
14 13 13 13 15 13 11 10 8 5 5 4 4 3 7 8 4 3 5 5 2 1 2 2 5 4 3 3 4 3 4 4 2 4 3 4 4 5 4 5 6 6 5 3 2 3 4 6 6 3 2 4 6 4 4 6 3 2 3 4 2 5 5 4 4 5 4 6 5 3 3 6 5 2 1 2 2 4 4 4 8 8 8 7 6 7 6 5
14 11 9 13 17 14 11 11 8 5 5 5 4 7 9 6 4 4 5 4 4 4 3 2 3 4 4 4 3 4 2 2 1 3 3 3 3 5 5 5 7 9 8 5 3 3 2 6 4 1 2 2 4 3 2 3 3 2 2 3 4 3 5 2 5 1 2 4 7 3 6 7 2 2 1 4 2 2 3 3 7 7 7 7 6 6 5 5
15 11 9 13 18 15 14 12 7 6 5 4 7 10 7 6 6 5 4 3 3 5 6 2 3 5 5 3 4 5 1 1 2 3 3 3 3 5 6 5 6 13 12 5 2 4 3 5 4 3 2 3 1 2 2 3 4 5 3 5 3 3 3 2 2 3 0 5 6 3 9 11 4 3 3 2 2 4 4 5 5 6 7 7 7 6 6 6
16 11 11 17 20 17 16 15 9 7 4 3 10 10 5 6 6 5 4 4 3 4 5 5 5 5 6 5 4 4 4 4 4 3 3 3 4 5 6 4 5 9 9 4 1 2 2 3 5 1 2 1 2 2 0 3 2 4 4 3 3 2 1 1 2 3 3 6 7 4 7 11 8 5 2 4 9 10 8 7 7 9 10 8 7 7 6 5
12 5 7 16 23 20 18 15 11 6 3 6 11 9 5 5 7 7 6 4 3 3 4 6 5 4 5 6 4 3 5 6 5 4 3 3 5 5 6 4 4 3 3 5 4 2 3 2 4 2 2 2 2 2 3 2 2 3 1 2 1 3 4 2 2 2 3 6 9 6 6 9 7 6 7 11 14 13 11 10 11 12 11 9 8 7 6 5
9 2 4 10 21 25 21 14 8 5 5 9 9 6 3 4 7 9 8 7 4 4 4 5 5 4 4 5 4 3 5 6 6 4 4 4 4 5 6 5 4 2 2 4 3 1 2 2 3 2 3 1 3 4 7 8 4 2 2 2 2 2 1 2 2 2 3 6 7 6 9 12 4 5 7 10 11 13 14 14 14 11 10 9 8 8 6 6
8 4 3 12 24 27 21 11 5 6 6 8 8 7 5 4 5 7 10 10 7 4 4 5 6 6 5 5 4 4 4 4 6 5 4 5 5 5 7 7 8 7 3 5 1 3 3 3 4 2 2 4 6 5 6 8 7 6 6 7 7 5 2 3 5 3 3 6 5 3 11 14 3 4 5 6 8 11 14 15 12 9 11 10 8 8 7 7
7 5 3 15 30 30 19 6 6 6 6 8 6 5 5 5 5 6 8 10 9 6 2 3 6 7 6 6 7 6 5 4 6 6 5 7 8 7 6 7 10 9 6 4 3 4 3 3 3 4 4 5 5 4 2 2 2 3 5 5 6 6 6 6 8 3 2 5 2 1 10 11 1 3 4 5 6 9 12 14 11 9 11 10 8 8 7 7
6 4 3 17 32 26 12 6 6 6 7 7 5 6 5 5 5 6 7 8 7 5 5 5 5 7 7 6 6 6 6 5 7 8 6 6 8 6 3 6 10 8 5 2 2 1 2 3 2 4 3 1 2 4 4 3 3 1 5 4 6 8 9 8 6 1 2 5 2 1 12 10 1 2 1 1 1 5 9 11 11 10 8 8 9 8 7 6
5 4 2 17 31 22 9 7 7 9 9 7 8 11 8 6 7 8 9 10 8 5 7 7 5 7 9 6 7 7 8 7 7 8 8 6 5 2 1 5 10 7 4 4 4 4 3 2 3 2 5 5 3 4 4 3 0 3 5 5 8 11 7 2 1 1 4 7 7 7 15 11 1 3 2 4 4 4 6 6 8 9 8 7 7 6 6 6
4 3 1 13 25 16 7 5 5 6 10 10 11 12 10 8 10 12 12 12 9 6 6 7 6 8 6 5 6 8 9 10 8 6 6 5 3 2 2 2 7 6 4 3 4 6 5 4 5 4 5 7 7 5 3 3 3 3 4 7 10 13 11 5 1 4 9 7 9 12 15 13 7 2 2 2 5 6 5 5 6 7 8 8 7 7 7 5
5 4 2 6 11 9 5 4 3 4 7 9 8 10 15 14 10 10 13 12 9 7 7 6 4 6 7 7 9 10 10 11 9 5 4 5 4 2 1 2 3 5 3 1 3 5 3 3 7 9 11 11 13 12 4 5 4 5 7 10 11 12 13 8 4 8 11 6 10 18 15 18 19 7 5 6 7 8 8 8 8 7 8 9 8 7 6 5
5 6 7 6 5 7 8 6 6 5 6 9 7 8 16 19 12 7 10 11 9 9 9 7 5 8 10 10 10 11 11 12 11 8 5 5 2 2 2 1 1 3 3 1 2 4 4 5 10 12 16 17 18 17 6 5 9 13 12 11 11 11 12 13 13 16 12 5 14 22 15 18 27 14 8 11 10 9 10 11 11 10 9 9 7 7 7 6
6 4 8 10 6 7 11 12 12 11 12 13 10 8 12 16 16 12 10 8 8 11 9 7 12 17 15 13 11 11 11 10 10 9 7 5 3 1 1 1 2 3 2 1 2 3 4 8 10 10 15 19 18 14 7 6 8 13 16 12 9 12 16 18 20 21 15 11 20 26 18 21 27 15 8 12 13 12 13 13 11 10 10 9 8 8 8 7
7 3 5 11 9 9 13 18 18 18 20 16 10 12 16 18 19 15 9 6 8 13 15 14 18 20 17 14 12 12 14 12 11 12 10 10 9 6 2 3 3 1 2 3 2 2 4 7 8 8 12 17 15 11 8 8 8 15 21 14 8 14 19 19 20 23 21 20 25 27 26 29 26 14 8 10 11 11 10 10 9 10 11 11 10 10 9 8
8 3 6 8 7 8 9 12 15 16 18 15 13 18 19 18 19 13 10 11 13 13 16 21 23 18 17 18 17 19 21 17 15 15 13 12 11 7 5 5 4 2 1 4 2 2 4 5 3 4 7 14 12 7 6 6 8 17 23 16 12 16 18 17 20 23 19 21 27 25 24 27 23 14 10 8 7 7 8 11 11 11 12 13 12 10 9 9
11 3 7 5 5 9 7 8 12 13 12 13 16 19 16 17 21 15 10 15 19 15 16 24 26 16 13 18 22 26 26 20 19 21 17 15 12 9 7 7 9 7 4 5 3 3 5 3 1 4 5 12 5 2 0 2 5 16 24 21 18 18 18 18 19 20 19 20 23 20 17 21 17 7 7 7 9 10 12 13 12 11 12 14 13 12 10 10
13 5 8 5 5 9 8 8 12 11 11 13 17 19 16 18 20 16 10 12 19 18 14 20 22 14 11 21 29 30 26 19 15 14 10 7 5 4 4 6 11 11 9 8 5 3 6 4 1 4 7 8 1 5 2 3 5 15 19 17 20 22 21 19 18 22 22 17 14 14 16 19 11 3 6 8 9 11 11 13 12 11 13 13 12 12 11 10
Wind_Direction
18 18 17 16 16 16 16 15 15 14 14 14 14 16 17 17 17 20 20 16 16 22 33 51 126 143 137 129 116 105 57 44 53 52 50 12 352 358 359 352 354 5 10 4 10 25 17 8 360 358 8 22 25 339 342 5 55 54 76 73 49 204 106 166 175 179 152 166 250 300 323 128 129 141 142 63 53 76 74 64 63 64 65 86 112 121 102 80
14 14 13 13 13 13 13 13 12 11 11 10 10 10 11 14 13 14 17 15 13 17 26 37 114 158 150 140 136 99 25 17 38 43 28 360 1 7 1 1 3 9 11 6 9 16 3 333 334 357 22 29 346 343 4 2 58 77 102 62 250 203 151 209 173 164 153 156 206 276 232 119 128 159 137 99 93 89 89 74 65 81 74 86 103 101 84 74
10 9 9 9 9 10 10 10 10 9 8 8 6 5 6 8 9 9 12 13 12 14 18 25 62 171 166 153 146 62 356 359 25 15 359 360 8 6 4 4 5 12 13 13 12 9 354 309 313 350 35 30 342 351 22 12 44 99 97 51 253 210 197 280 181 169 182 157 157 225 197 72 38 140 101 119 129 90 125 146 129 121 131 116 88 80 77 72
5 5 4 5 5 6 7 7 8 8 6 5 3 2 1 3 6 4 5 8 8 11 13 16 33 170 179 168 147 61 1 27 19 323 343 3 12 6 10 5 5 14 15 25 32 27 27 354 331 36 53 20 330 10 48 346 15 98 114 168 233 200 152 257 195 176 172 145 148 177 111 86 69 61 114 136 117 358 209 196 176 161 156 141 114 85 81 77
1 1 1 1 1 2 3 4 5 6 5 4 2 360 358 358 1 1 1 3 4 7 11 10 20 139 183 178 159 78 33 52 277 314 345 8 17 9 20 17 9 12 18 31 36 39 38 31 45 46 44 32 344 14 33 304 77 65 262 205 207 169 134 207 197 186 162 116 112 127 112 126 101 52 115 152 148 213 211 197 169 155 150 143 134 112 92 85
359 359 359 359 359 358 359 0 1 3 2 1 360 357 355 353 355 358 357 358 359 3 9 11 17 83 165 177 179 185 78 131 260 325 340 10 21 8 22 22 12 360 3 24 26 35 37 26 47 42 24 43 9 6 302 310 43 354 295 282 220 177 139 196 195 210 168 109 96 140 137 93 85 68 87 141 171 186 152 146 147 141 146 137 127 118 103 96
357 357 357 357 358 356 356 356 356 358 357 357 356 354 352 349 350 353 353 352 353 358 6 17 34 97 123 154 169 93 87 179 261 314 323 25 14 4 20 18 12 347 343 24 22 30 47 33 45 69 45 39 29 341 305 324 16 133 263 306 270 191 164 188 182 193 144 110 108 125 121 136 144 152 97 99 134 122 114 129 136 138 141 131 118 117 115 115
354 354 355 356 356 355 353 353 353 352 352 351 351 350 348 346 346 349 349 345 347 353 360 19 118 134 116 133 148 57 31 212 238 229 93 15 343 6 12 4 10 354 21 44 31 37 66 47 43 70 53 32 43 345 328 343 0 133 229 287 301 251 212 179 162 159 126 117 110 78 80 207 174 149 113 134 143 119 126 132 137 140 136 127 120 121 122 121
350 350 352 354 354 353 352 351 350 348 347 346 345 345 343 342 342 346 346 341 343 348 353 16 161 172 156 122 110 78 268 207 169 190 123 328 312 359 358 8 19 12 52 53 38 57 77 77 160 83 103 209 42 341 353 23 322 222 225 286 317 303 305 301 180 162 138 144 120 78 17 330 130 83 94 172 163 138 137 138 149 139 130 130 127 134 134 128
346 348 349 351 352 351 349 349 348 346 345 343 340 340 340 338 338 342 344 341 340 345 352 24 121 169 187 145 80 114 221 173 150 151 111 299 314 348 350 17 25 23 54 45 37 59 93 155 174 132 136 140 17 315 6 84 249 244 268 284 281 289 299 282 228 198 137 104 109 114 319 217 155 15 229 202 168 151 141 141 161 137 133 141 139 147 136 129
343 346 347 347 349 348 347 347 346 345 342 341 338 337 338 335 335 338 341 342 338 344 353 26 116 143 181 138 99 194 197 145 133 100 97 93 22 357 350 19 28 33 48 55 57 67 103 151 160 129 107 97 335 316 256 202 247 272 316 307 297 316 313 259 193 227 147 109 114 112 87 181 300 321 224 186 153 160 149 142 161 140 143 151 149 154 144 137
340 342 344 344 345 345 344 343 343 343 340 340 337 336 337 333 332 333 338 340 332 342 359 221 154 148 146 90 97 168 159 139 109 79 67 65 41 15 25 22 28 36 39 65 93 91 94 132 136 114 7 159 209 340 184 224 274 265 17 325 305 347 336 299 154 217 163 165 161 119 62 299 226 253 194 139 141 158 147 147 163 150 156 157 152 160 162 146
335 339 341 339 341 341 341 340 341 341 339 338 337 335 334 331 328 330 336 336 330 342 4 63 151 152 123 69 125 138 139 132 89 65 48 39 31 35 37 13 19 33 34 58 105 112 88 103 119 117 108 123 211 289 123 10 338 279 38 46 314 360 333 305 49 183 161 170 171 142 273 257 231 235 134 125 144 146 147 165 178 166 168 164 160 162 167 164
330 333 335 335 336 337 337 337 338 338 338 337 336 334 332 329 325 326 334 337 340 344 357 98 142 145 103 157 196 159 165 154 87 49 45 33 38 83 21 4 15 34 40 55 78 95 89 82 94 95 100 124 238 294 22 3 18 344 19 50 1 5 284 296 13 145 177 236 126 128 241 251 249 245 158 148 154 152 163 182 189 184 181 178 177 168 175 198
323 327 331 332 331 334 335 335 335 337 337 336 335 333 331 327 322 323 319 340 349 337 182 124 150 131 85 354 210 177 197 208 219 357 30 19 34 90 351 358 44 64 61 71 73 90 96 62 74 80 288 341 36 34 5 343 10 38 4 325 332 197 269 306 308 166 188 265 98 129 243 265 261 239 165 154 166 166 173 188 195 195 190 185 187 182 190 210
317 322 327 329 330 332 332 332 334 335 336 336 335 331 330 326 319 314 265 322 344 316 183 136 156 129 112 242 182 178 211 217 226 268 325 356 13 13 0 31 102 91 102 116 88 114 59 46 68 96 15 20 59 72 36 8 346 2 47 282 278 233 286 315 314 207 184 222 255 182 234 273 268 218 162 154 176 180 179 191 199 200 194 185 188 193 197 200
312 315 322 326 328 329 330 331 332 335 337 337 336 331 332 326 312 303 246 312 345 279 170 176 165 127 148 162 151 202 218 204 220 243 257 330 353 349 18 82 97 100 114 120 97 331 10 42 35 332 40 43 71 81 41 356 316 326 4 299 263 253 271 296 305 305 136 174 247 212 224 253 259 198 172 168 175 186 191 194 200 200 196 192 192 197 201 193
305 309 315 320 325 327 328 330 330 335 338 338 338 332 330 323 310 295 225 316 353 123 128 310 114 79 270 222 183 212 181 190 238 241 234 277 334 344 46 98 94 105 52 31 37 16 7 25 46 29 21 10 26 75 101 247 231 257 285 293 292 278 253 253 270 290 49 230 243 217 242 255 256 211 188 182 178 192 201 197 200 201 196 199 197 198 202 197
296 303 307 312 319 323 325 328 330 336 339 340 342 334 328 328 322 281 297 345 356 157 280 244 186 198 253 255 213 198 189 230 262 228 211 232 318 355 85 88 59 87 60 26 351 6 37 25 29 16 334 293 235 130 173 207 192 212 239 231 262 278 269 259 248 261 252 245 248 230 240 253 250 221 198 188 182 194 205 200 204 205 201 203 201 202 200 200
290 295 299 305 311 317 322 325 327 336 342 344 346 344 346 4 357 331 342 342 259 210 265 219 219 250 267 287 185 222 261 243 244 207 196 242 213 109 86 42 32 47 61 62 297 328 78 43 314 255 250 226 212 193 182 189 177 180 187 216 241 243 270 276 265 276 229 199 256 238 233 252 250 229 207 186 180 196 204 204 207 204 204 204 201 201 199 207
287 289 292 298 304 310 316 321 326 335 344 347 355 10 116 95 23 310 323 306 265 256 244 234 223 249 262 257 213 233 178 213 268 213 199 252 164 144 105 24 48 22 320 181 299 343 61 28 264 236 222 203 198 195 170 165 169 169 181 238 275 237 255 276 271 286 60 172 268 256 234 254 254 241 211 171 180 203 203 202 204 199 203 206 198 199 200 210
287 286 290 294 299 305 310 317 322 329 339 350 19 78 148 162 149 192 300 296 284 272 231 244 236 264 265 244 237 216 103 122 283 244 208 188 137 174 163 66 97 232 318 33 18 0 19 279 259 246 199 153 120 154 153 166 172 175 158 216 291 257 266 292 297 326 15 198 277 278 252 254 260 255 221 184 194 209 206 204 202 194 197 201 196 197 197 206
285 285 291 294 297 302 305 314 318 324 340 6 56 109 149 150 152 167 135 290 287 290 240 229 207 239 281 263 221 170 133 186 226 246 210 152 180 181 126 97 122 173 31 67 140 8 328 257 249 222 144 136 42 76 127 131 254 198 172 184 272 275 288 288 308 338 319 253 260 275 268 253 257 258 238 197 201 211 208 208 206 199 198 197 197 195 190 198
283 287 293 294 297 299 302 309 309 319 344 31 69 110 146 151 156 161 137 308 291 290 256 224 209 193 213 230 184 165 161 202 196 235 204 142 149 152 136 134 120 137 204 159 142 181 257 250 167 108 120 151 186 128 138 176 280 260 210 202 250 271 250 245 289 336 317 289 276 294 288 254 228 244 248 203 204 216 197 198 209 215 211 204 203 200 197 199
286 294 297 298 297 297 303 305 297 313 337 33 79 87 121 160 168 151 65 27 309 297 281 234 230 200 197 146 164 182 158 228 216 227 222 141 151 140 142 156 125 176 216 163 127 212 259 265 120 122 122 143 171 212 183 176 235 294 242 214 231 252 255 265 329 357 334 306 321 11 313 273 234 247 248 159 204 220 195 199 210 210 210 210 206 200 205 209
292 296 298 299 298 300 303 293 278 338 332 279 98 62 112 162 173 174 87 54 307 275 191 213 221 183 191 154 172 172 119 274 261 269 43 142 169 140 131 180 72 189 197 160 138 238 260 346 76 135 153 147 174 243 227 168 139 286 255 206 212 229 246 269 327 352 273 263 297 60 281 274 281 248 243 189 204 223 204 211 214 204 204 207 202 196 201 202
290 295 296 294 307 316 308 260 253 302 285 243 297 15 128 162 173 193 58 31 287 235 146 273 309 155 183 190 181 152 174 270 354 28 29 122 313 47 131 203 107 198 186 114 337 266 168 76 49 108 130 156 192 250 228 157 131 239 245 131 141 199 233 249 270 267 245 271 295 216 170 273 273 248 247 183 199 230 221 220 219 206 209 207 201 201 199 192
284 288 291 293 316 319 295 265 273 253 215 244 307 10 128 157 171 111 69 309 267 210 142 242 148 143 156 343 162 143 200 222 119 222 338 71 319 43 84 213 175 192 185 129 254 270 164 169 195 157 132 186 211 227 190 157 158 245 215 142 139 198 219 225 211 254 283 10 291 243 148 260 269 249 342 123 205 241 232 222 216 207 209 205 200 206 202 189
282 284 288 291 309 307 274 265 275 239 228 258 21 111 138 150 157 76 76 245 260 248 139 131 145 178 69 61 273 131 226 353 156 241 344 62 190 59 106 211 158 173 200 142 218 246 204 203 193 154 159 213 219 222 176 162 199 228 156 123 4 42 203 207 218 257 31 7 268 246 155 222 269 225 96 71 227 242 236 223 212 209 211 203 198 204 198 183
284 289 292 287 297 298 275 269 262 240 247 248 127 137 143 128 80 73 141 244 255 270 147 134 199 177 115 126 266 250 186 226 168 31 17 78 11 30 101 180 99 126 285 354 250 244 296 270 174 148 184 197 166 136 143 154 164 111 80 20 355 359 23 45 48 75 62 266 259 230 176 197 271 242 172 195 218 221 222 212 198 207 211 201 198 198 186 177
280 287 285 279 289 293 284 276 244 225 237 184 153 140 127 61 72 126 220 243 261 277 166 196 218 127 134 162 203 188 179 230 186 136 134 159 29 33 105 192 53 64 356 348 295 297 338 61 218 242 178 134 105 86 30 17 71 90 69 32 349 325 4 23 355 50 82 260 261 225 183 197 242 248 207 227 241 224 207 193 194 204 203 195 194 190 180 180
276 279 270 270 281 280 266 260 263 290 227 171 157 111 97 43 91 188 236 287 293 220 190 193 200 163 165 170 214 201 184 211 189 167 170 162 171 183 191 205 180 5 320 277 282 323 312 213 259 318 181 135 114 93 6 353 34 77 76 60 12 325 355 345 300 242 218 250 247 122 146 220 242 250 244 242 251 248 216 203 203 199 190 186 186 182 179 180
266 267 257 266 278 274 260 261 283 297 218 176 154 60 86 165 228 210 219 266 245 215 162 124 127 139 144 152 248 215 179 218 194 173 171 151 194 245 252 226 170 165 257 232 322 326 302 293 299 286 268 171 145 147 203 270 117 134 137 126 147 329 332 293 275 276 276 271 251 116 111 268 266 263 252 249 263 263 226 215 210 187 177 180 175 170 179 183
260 253 242 259 277 272 261 265 275 268 215 175 104 74 127 203 236 217 214 232 241 341 13 112 107 108 135 183 236 195 173 236 185 158 173 136 184 246 255 246 183 139 146 159 190 193 235 298 231 182 229 179 172 184 170 142 141 175 154 135 162 169 227 269 262 270 292 296 268 160 160 238 243 258 262 267 295 308 261 191 151 149 159 163 155 160 180 190
252 243 234 251 272 272 258 260 270 251 214 161 111 152 194 212 227 211 220 230 234 337 350 59 95 124 220 269 272 220 206 242 158 133 182 171 184 205 199 216 193 142 128 168 235 175 186 258 248 225 261 169 174 196 140 110 114 222 125 117 187 183 189 246 250 234 292 310 277 214 211 227 211 211 311 321 337 15 30 95 123 137 148 145 156 172 184 194
237 243 244 246 259 264 252 256 263 231 187 137 169 212 212 211 193 190 208 189 179 164 124 44 89 147 245 281 276 260 239 241 151 136 219 212 205 213 210 219 192 171 166 168 207 191 190 264 266 50 314 213 178 181 129 107 167 168 124 183 217 162 149 229 282 308 66 287 272 235 255 274 276 256 338 45 37 47 56 132 141 148 155 155 173 183 188 199
233 250 255 243 250 250 239 249 249 203 162 133 210 220 208 208 192 185 202 163 159 138 128 179 202 182 219 240 230 230 205 270 195 172 222 238 229 205 208 246 197 184 191 178 199 212 197 266 259 151 198 257 215 147 41 14 135 137 189 215 183 95 92 114 287 318 319 250 266 254 264 276 272 264 323 43 227 219 196 183 164 165 174 177 187 189 195 200
230 240 244 235 235 231 228 236 219 180 141 166 229 235 213 209 205 190 184 149 124 112 139 204 217 186 192 201 226 209 176 201 191 175 207 231 245 193 169 216 205 195 206 172 168 245 154 254 276 183 191 272 30 95 332 334 72 131 214 228 117 145 242 123 155 267 264 260 272 264 269 270 243 224 249 212 213 212 200 193 194 193 190 188 188 191 199 197
208 218 255 230 223 221 218 214 191 163 170 205 225 236 209 206 226 215 187 164 159 150 173 218 221 199 180 179 197 182 179 198 178 179 200 189 237 213 168 193 196 201 216 148 170 217 126 216 270 324 282 274 50 122 198 252 14 46 289 320 34 184 206 196 165 206 243 266 278 280 285 273 234 186 207 213 206 198 187 191 206 204 193 188 184 186 193 189
174 218 277 201 204 209 198 181 167 171 213 218 220 229 213 215 230 226 212 203 205 193 198 215 214 213 202 190 199 185 194 203 174 187 218 189 225 232 203 193 155 149 16 79 137 174 102 215 241 313 325 243 181 198 192 186 175 150 181 226 245 204 204 263 223 161 210 258 272 276 276 270 233 162 205 213 206 196 184 192 207 200 186 189 186 182 186 183
161 231 241 174 184 185 169 159 189 199 215 230 227 226 230 232 225 229 226 215 217 221 184 184 200 204 197 204 223 197 185 200 185 193 228 212 219 233 212 186 152 149 98 67 140 199 161 194 195 182 240 213 225 240 203 191 188 179 185 196 205 203 189 262 257 205 191 242 239 256 276 270 222 159 206 205 203 197 186 194 201 186 182 190 188 184 182 184
177 222 197 175 177 167 155 178 217 198 219 229 226 230 229 233 226 222 223 216 223 237 208 196 207 202 201 207 213 197 175 191 199 198 225 221 210 218 213 178 155 152 142 131 210 211 135 130 189 218 216 206 247 292 283 233 211 197 213 198 189 191 177 213 248 229 172 240 221 56 275 268 154 135 210 213 209 194 187 194 189 179 186 184 183 186 182 187
199 203 135 171 174 165 162 221 215 205 230 223 232 250 236 235 234 214 210 213 216 213 219 235 202 199 222 211 197 200 190 202 204 193 220 233 210 217 212 165 159 147 133 148 206 200 104 109 200 266 301 357 325 331 346 19 56 231 241 197 182 203 197 209 235 150 181 236 167 193 258 258 32 48 259 49 214 184 185 191 178 173 185 180 179 185 181 191
190 173 106 173 180 179 190 215 203 213 224 212 226 237 236 246 238 219 209 207 203 188 207 225 203 207 224 195 189 206 193 208 219 199 209 217 205 248 333 179 181 167 171 198 180 175 185 166 178 264 311 314 319 342 335 322 193 224 235 198 203 217 209 211 45 103 248 227 175 220 256 257 295 21 43 86 118 164 183 186 174 170 176 180 180 182 184 190
163 164 122 179 187 196 218 217 195 209 214 212 224 229 232 246 234 221 218 214 210 190 199 226 211 204 207 171 199 217 202 216 233 215 209 212 225 322 3 225 209 197 224 248 180 172 181 180 170 184 239 259 263 263 248 226 206 230 235 209 210 210 200 200 196 220 243 223 193 228 256 267 265 127 108 166 154 167 189 182 184 181 175 179 180 183 188 186
172 186 162 175 193 207 237 233 198 209 205 201 221 228 224 232 234 218 215 221 222 204 216 243 204 188 201 190 206 226 223 227 234 223 202 203 224 272 319 287 240 217 242 289 165 155 135 195 201 203 220 233 248 254 226 138 173 226 228 209 203 204 201 203 216 233 238 234 240 244 249 268 269 234 176 215 190 182 193 181 188 192 179 181 181 180 185 189
190 205 179 164 179 204 221 221 204 214 196 179 194 214 216 223 231 220 206 211 211 205 226 244 199 197 208 192 202 229 227 223 229 228 205 190 225 290 277 270 222 220 218 173 195 127 106 234 222 214 229 235 244 253 231 174 227 245 244 222 197 191 195 199 216 234 236 231 258 257 243 254 265 255 202 212 205 194 195 188 190 188 178 181 176 174 187 199
202 219 183 173 176 194 205 204 197 206 208 199 206 224 218 215 216 213 204 198 196 197 212 230 217 215 209 190 198 227 226 221 230 230 211 197 207 225 284 263 235 236 176 143 264 128 141 239 227 208 235 243 246 253 230 204 243 256 257 243 194 184 197 206 223 235 232 227 251 264 263 258 263 263 219 210 205 200 198 191 186 177 171 173 169 176 192 201
210 256 190 182 191 194 196 197 193 202 213 211 215 231 228 220 215 209 188 173 202 206 204 217 224 218 208 196 199 220 223 214 220 227 216 213 212 182 170 248 230 237 140 153 236 145 162 245 234 204 239 251 250 249 234 232 254 261 260 251 208 209 213 215 233 240 236 238 250 262 270 267 267 267 244 221 204 196 189 175 170 168 172 174 175 185 195 201
207 232 187 186 208 201 194 194 188 200 214 211 218 230 229 226 223 211 180 185 205 207 201 216 225 214 202 205 208 223 226 211 212 225 210 206 217 194 190 217 167 108 159 167 196 240 205 241 229 171 246 262 253 237 229 240 256 263 266 258 234 238 237 231 241 246 244 246 251 257 264 267 269 265 245 219 171 156 158 165 175 178 177 177 180 189 194 199
218 205 161 170 215 199 188 188 185 199 212 205 217 227 224 226 225 213 199 208 212 205 196 212 223 214 199 211 217 226 229 213 213 225 210 197 207 200 203 200 152 147 189 176 167 201 198 227 45 108 237 260 258 110 239 315 290 270 269 260 241 240 241 234 236 240 236 238 249 256 256 260 267 259 219 192 158 159 168 173 181 182 180 181 184 189 195 200
221 205 167 175 214 195 191 198 191 201 214 209 217 222 219 225 221 207 211 227 222 219 207 207 216 211 202 217 222 226 229 219 216 228 216 189 184 182 196 184 165 166 170 168 179 180 171 190 154 147 227 258 21 84 89 35 301 269 262 246 228 227 234 238 242 242 233 226 241 247 243 252 258 184 186 194 174 175 180 178 179 181 184 187 186 187 192 200